User: anonymous   Login
Location: Carrières
(48.9495°N, 2.0407°E)
Time: 06:08:05
(UTC+00:00)
Language:

BREEZE M DEB (TANK) - Orbit

View from above orbital plane
View from above orbital plane
View from above satellite
View from above satellite

Ground track
Ground track

The orbit data is extracted from the following two-line orbital elements,

1 33437U 08057B   23156.40012385  .00002596  00000-0  53577-3 0  9992
2 33437  49.5645 172.2838 4962406 227.8304  77.8729  5.65877810296388
Epoch (UTC): 05 June 2023 09:36:10
Eccentricity: 0.4962406
inclination: 49.5645°
perigee height: 323 km
apogee height: 13525 km
right ascension of ascending node: 172.2838°
argument of perigee: 227.8304°
revolutions per day: 5.65877810
mean anomaly at epoch: 77.8729°
orbit number at epoch: 29638

The dashed part of the orbit path shows where the satellite is in the earth's shadow,  

DLR